Other Public Products
Issued by NWS Grand Forks, ND

Home | Current Version | Previous Version | Graphics & Text | Print | Product List | Glossary On
Versions: 1 2 3 4 5 6 7 8 9 10 11 12 13 14 15 16 17 18 19 20 21 22 23 24 25 26 27 28 29 30 31 32 33 34 35 36 37 38 39 40 41 42 43 44 45 46 47 48 49 50
000
FPUS83 KFGF 021631
OPUFGF
PRAIRIE TO PINES WEATHER ROUNDUP
NATIONAL WEATHER SERVICE EASTERN NORTH DAKOTA/GRAND FORKS ND
1100 AM CDT SUN AUG 02 2015

 **SATELLITE DATA USED TO AUGMENT SKY COVER AT AUTOMATED STATIONS**
 *****  WEATHER ACROSS EASTERN NORTH DAKOTA  *****

CITY           SKY/WX    TMP DP  RH WIND       PRES   REMARKS
GRAND FORKS    MOSUNNY   72  55  55 N14       29.80R
GRAND FORKS AF MOSUNNY   72  56  57 NW16      29.82R
GRAND CITY NWS NOT AVBL
BUXTON         NOT AVBL
DEVILS LAKE    MOSUNNY   70  52  52 N15G21    29.87R
FARGO          SUNNY     74  58  57 N20       29.80R
WAHPETON ARPT  SUNNY     73  55  53 NW18      29.79R
$$

 *****  WEATHER ACROSS CENTRAL AND WESTERN NORTH DAKOTA  *****

CITY           SKY/WX    TMP DP  RH WIND       PRES   REMARKS
JAMESTOWN      MOSUNNY   71  61  70 N10       29.87R
BISMARCK       SUNNY     74  56  53 NW13G20   29.95R
MINOT          SUNNY     71  54  54 NW12      29.93S
MINOT AFB      SUNNY     72  55  54 NW16      29.92S
GARRISON         N/A     70  57  63 N14       29.95R
WILLISTON      SUNNY     72  53  51 N13       30.01R
DICKINSON      SUNNY     73  52  47 N13       30.00S
HETTINGER      SUNNY     72  51  47 N14       30.01R
$$

 *****  OTHER OBSERVATIONS NORTHEAST NORTH DAKOTA  *****

CITY           SKY/WX    TMP DP  RH WIND       PRES   REMARKS
WALHALLA       FAIR      70  48  46 MISG      29.84R
LANGDON        FAIR      72  48  43 N16       29.87R
CAVALIER       FAIR      72  55  56 N13G22    29.82S
GRAFTON        FAIR      72  57  60 NW16      29.82S
CANDO          FAIR      70  46  43 N17G28    29.90R
FORT TOTTEN      N/A     70  59  68 N7        29.95S
ROLLA          FAIR      66  46  48 NW16G23   29.91S
RUGBY          NOT AVBL
 ***** THE ABOVE OBSERVATIONS ARE NON NWS ARE NOT QUALITY
        CONTROLLED AND MAY MIS-REPORT RAIN FOR SNOW...
$$

 *****  OTHER OBSERVATIONS SOUTHEAST NORTH DAKOTA *****

CITY           SKY/WX    TMP DP  RH WIND       PRES   REMARKS
COOPERSTOWN    NOT AVBL
VALLEY CITY    FAIR      72  57  60 N15       29.86R
OAKES            N/A     75  61  60 N14       29.85S
GWINNER        FAIR      73  57  56 N13       29.84R
BUFFALO        NOT AVBL
WYNDMERE         N/A     73  63  68 N12         N/A
 ***** THE ABOVE OBSERVATIONS ARE NON NWS ARE NOT QUALITY
       CONTROLLED AND MAY MIS-REPORT RAIN FOR SNOW...
$$

  *****  WEATHER ACROSS NORTHERN MINNESOTA  *****

CITY           SKY/WX    TMP DP  RH WIND       PRES   REMARKS
FLAG ISLAND    MOSUNNY   68  46  45 NW24      29.71S
WARROAD        MOSUNNY   70  52  52 NW15G21   29.75R
ROSEAU         MOSUNNY   70  52  52 N16G22    29.76R
HALLOCK        SUNNY     72  52  49 N13G21    29.80R
THF RVR FALLS  PTSUNNY   70  54  56 NW12G20   29.79S
HALSTAD        NOT AVBL
FOSSTON        PTSUNNY   72  55  56 NW16G22   29.78R
BAUDETTE       MOSUNNY   69  55  60 NW20G28   29.71S
WASKISH        MOSUNNY   72  59  64 W14G21    29.72R
CROOKSTON      SUNNY     72  54  53 N20       29.81R
$$
  *****  WEATHER ACROSS CENTRAL AND WEST MINNESOTA  *****

CITY           SKY/WX    TMP DP  RH WIND       PRES   REMARKS
BEMIDJI        MOSUNNY   71  55  58 NW15G23   29.75R
PARK RAPIDS    SUNNY     75  56  51 NW15G22   29.73S
WADENA         SUNNY     73  61  64 NW10      29.74S
DETROIT LAKES  MOSUNNY   72  61  68 N14G20    29.79R
MOORHEAD       MOSUNNY   72  59  64 N14       29.81R
FERGUS FALLS   SUNNY     73  61  64 NW13      29.77R
ELBOW LAKE     FAIR      73  63  71 NW14G21   29.77R
MORRIS MN      SUNNY     77  63  61 N18       29.75R
STAPLES        SUNNY     73  59  60 NW14      29.72S
WHEATON        SUNNY     73  63  68 NW16      29.80R
$$
  *****  WEATHER ELSEWHERE ACROSS MINNESOTA  *****

CITY           SKY/WX    TMP DP  RH WIND       PRES   REMARKS
DULUTH         PTSUNNY   65  59  81 NW7       29.64S
INTRNTL FALLS  PTSUNNY   68  56  65 NW14      29.67F
ELY            MOSUNNY   68  55  64 NW7       29.65R
CLOQUET        CLOUDY    72  55  56 NW13      29.67R
BRAINERD       MOSUNNY   74  60  61 NW8       29.71R
HIBBING        PTSUNNY   67  61  81 NW8       29.68R
ALEXANDRIA     SUNNY     77  60  55 N10       29.75R
SAINT CLOUD    CLOUDY    75  66  73 NW9       29.65R
MINNEAPOLIS    MOSUNNY   80  64  58 SW15      29.62F
$$

  *****  WEATHER ACROSS SOUTH DAKOTA  *****

CITY           SKY/WX    TMP DP  RH WIND       PRES   REMARKS
SIOUX FALLS    MOSUNNY   81  65  58 NW13      29.79R
BROOKINGS      SUNNY     79  64  61 N15       29.82R
WATERTOWN      SUNNY     77  60  55 N21G30    29.81R
HURON          SUNNY     76  64  66 N18       29.82R
SISSETON         N/A     74  61  63 N17       29.79R
ABERDEEN       SUNNY     77  59  53 N20       29.85R
MITCHELL       SUNNY     78  64  61 N15       29.82R
PIERRE         SUNNY     79  60  52 N15       29.87R
MOBRIDGE       SUNNY     76  58  53 N13G20    29.91R
RAPID CITY     SUNNY     75  52  44 NE8       30.01R
$$

  *****  SOME WEATHER IN NEARBY STATES *****

CITY           SKY/WX    TMP DP  RH WIND       PRES   REMARKS
GLASGOW MT     SUNNY     73  52  47 NE9       30.04S
GREAT FALLS MT SUNNY     66  53  63 W9        30.10S
CHEYENNE WY    SUNNY     81  51  35 NE8       30.15S
SCOTTSBLUFF NE SUNNY     80  58  46 NW5       30.02S
OMAHA NE       MOSUNNY   88  72  58 SW8       29.84F HX  94
DES MOINES IA  MOSUNNY   88  71  57 W21       29.81S HX  94
DAVENPORT IA   SUNNY     82  67  60 SW15G21   29.83F
CHICAGO IL     MOSUNNY   85  64  49 W16G24    29.81F
EAU CLAIRE WI  SUNNY     80  67  64 W12       29.61F
LA CROSSE WI   SUNNY     85  69  58 S13       29.66F
$$

  *****  SOME NATIONAL WEATHER *****

CITY           SKY/WX    TMP DP  RH WIND       PRES   REMARKS
LA GUARDIA NY  MOSUNNY   85  51  31 VRB6      29.92F
RALEIGH NC     PTSUNNY   84  61  45 NE6       30.00R
ATLANTA GA     MOSUNNY   86  64  47 E8        29.98S
NEW ORLEANS LA MOSUNNY   91  63  39 N3        29.91S HX  92
OKLAHOMA CITY  LGT RAIN  76  68  76 SE9       29.99S
ALBUQUERQUE NM MOSUNNY   74  56  53 CALM      30.20S
SALT LAKE CITY PTSUNNY   83  41  22 SE6       30.01R
LOS ANGELES CA CLOUDY    72  64  78 SE5       29.93R
BOISE ID       SUNNY     82  43  25 NE5       29.93S
SEATTLE WA     PTSUNNY   70  54  56 CALM      29.97R
$$

*** WEATHER ACROSS MANITOBA...SASKATCHEWAN AND ONTARIO ***
                ***ONTARIO***

CITY           SKY/WX    TMP DP  RH WIND       PRES   REMARKS
GERALDTON      MOSUNNY   68  52  56 NW14      29.54S
THUNDER BAY    PTSUNNY   70  57  64 W10G18    29.56F
SIOUX LOOKOUT  PTSUNNY   66  50  55 NW14G23   29.61S
TORONTO        MOSUNNY   82  54  36 W9G18     29.82S
BIG TROUT LK   LGT RAIN  52  48  87 NW9G20    29.47
PICKLE LAKE    PTSUNNY   59  48  67 W17G26    29.53F
DRYDEN         MOSUNNY   66  43  42 W12G25    29.64S
KENORA         PTSUNNY   66  46  48 NW13G22   29.70S
$$
                *** MANITOBA***

CITY           SKY/WX    TMP DP  RH WIND       PRES   REMARKS
BRANDON        MOSUNNY   70  48  46 NW20G28   29.88S
DAUPHIN        SUNNY     70  43  37 NW21G30   29.85S
ISLAND LAKE    LGT RAIN  55  52  88 N7G20     29.60R
PILOT MOUND      N/A     66  48  52 N14         N/A
THE PAS        MOSUNNY   63  45  51 NW17G24   29.81S
THOMPSON       LGT RAIN  52  48  87 N13       29.69R
WINNIPEG       MOSUNNY   70  52  52 NW17G24   29.78S
LYNN LAKE      CLOUDY    55  46  71 N18G25    29.80R
CHURCHILL      LGT RAIN  46  45  93 N21G30    29.60R FOG
$$
                ***SASKATCHEWAN***

CITY           SKY/WX    TMP DP  RH WIND       PRES   REMARKS
ESTEVAN        MOSUNNY   70  55  60 NW10G18   29.99R
KINDERSLEY     PTSUNNY   66  54  63 VRB3      30.07S
LLOYDMINSTER   MOSUNNY   66  54  63 W3        30.06S
PRINCE ALBERT  MOSUNNY   66  55  68 NW10      29.98S
REGINA         MOSUNNY   70  55  60 NW8       30.02S
YORKTON        SUNNY     68  52  56 NW13G21   29.94S
N. BATTLEFORD  SUNNY     64  52  63 NW5       30.07S



USA.gov is the U.S. government's official web portal to all federal, state and local government web resources and services.